User: anonymous
Location: Brno
(49.2000°N, 16.6330°E)
Time: 06:36:09
(UTC+02:00)
Language:

BREEZE M DEB (TANK) - Orbit

View from above orbital plane
View from above orbital plane
View from above satellite
View from above satellite

Ground track
Ground track

The orbit data is extracted from the following two-line orbital elements,

1 28359U 04022B   14245.74006346  .00002624  00000-0  39406-3 0  2432
2 28359 049.5275 337.1109 4710083 087.4821 016.5739 06.11598910222454
Epoch (UTC): 02 September 2014 17:45:41
Eccentricity: 0.4710083
inclination: 49.5275°
perigee height: 303 km
apogee height: 12201 km
right ascension of ascending node: 337.1109°
argument of perigee: 87.4821°
revolutions per day: 6.11598910
mean anomaly at epoch: 16.5739°
orbit number at epoch: 22245

The dashed part of the orbit path shows where the satellite is in the earth's shadow,  

DLR